Retour au catalogue

GLOBALSTAR M088

ActifCommunicationsLEO
NORAD 37740·PAYLOAD·🇺🇸 United States

Lancé Jul 13, 2011 depuis Baikonur Cosmodrome

Loading…

Prochains Passages (prochaines 24 heures)

TLE

FraisSource: Space-Track

Époque: Sep 14, 2026, 08:15 UTC

1 37740U 11033B   26257.34441450 -.00000104  00000-0 -97104-6 0  9990
2 37740  52.0243   7.6461 0000627  99.4855 294.0267 12.62270186699759

Suivez GLOBALSTAR M088 en temps réel avec AllMySat

Download on the App Store